Location: Saint-Restitut
(44.3351°N, 4.7915°E)
Time: 15:56:19
(UTC+00:00)

CSL-04 Debris - Pass Details

Date: 24 February 2024
Orbit: 824 x 843 km, 98.8° (Epoch: 21 April)

Event Time Altitude Azimuth Distance (km) Brightness Sun altitude
Exits shadow 20:06:51 32° 210° (SSW) 1,382 5.3 -30.0°
Maximum altitude 20:08:52 47° 261° (W) 1,092 5.0 -30.4°
Drops below altitude 10° 20:14:03 10° 334° (NNW) 2,435 7.1 -31.3°
Sets 20:16:30 0° 341° (NNW) 3,371 7.8 -31.7°
